BEIDOU 5

Last updated on Sun Feb 19 2023 00:02:45 GMT+0000 (Coordinated Universal Time)

1 36828U 10036A 23049.61470269 -.00000163 00000+0 00000+0 0 9999 2 36828 54.2095 173.9801 0035087 185.1291 118.8175 1.00280258 46044

Satellite not in orbit

BEIDOU 5